This demonstration page uses our WeatherBlox Daily Observations layout. Learn more.

Left ArrowRight Arrow

38.88101, -77.10428

Hourly Observations for January 11, 2022

Temp ( °F °C ) Dew Point ( °F °C ) Humidity (%) Winds ( mph kmh ) Pressure ( in mb ) Visibility ( mi km ) Precip ( " mm )
12:52 am 00:52 Mostly Cloudy 28 -2.2 8 -13.3 43 43 NNW 9 15 30.36 1028 10 16 0.00 0.00
1:52 am 01:52 Cloudy 28 -2.2 9 -12.8 44 44 NW 12 19 30.38 1029 10 16 0.00 0.00
2:52 am 02:52 Cloudy 27 -2.8 11 -11.7 51 51 NW 16 26 30.41 1030 10 16 0.00 0.00
3:52 am 03:52 Mostly Cloudy 26 -3.3 9 -12.8 48 48 NNW 15 24 30.43 1031 10 16 0.00 0.00
4:52 am 04:52 Cloudy 25 -3.9 3 -16.1 39 39 NW 13 20 30.46 1031 10 16 0.00 0.00
5:52 am 05:52 Partly Cloudy 25 -3.9 4 -15.6 40 40 NW 12 19 30.49 1033 10 16 0.00 0.00
6:52 am 06:52 Partly Cloudy 23 -5 10 -12.2 57 57 NNW 13 20 30.53 1034 10 16 0.00 0.00
7:52 am 07:52 Mostly Cloudy 24 -4.4 7 -13.9 48 48 N 21 33 30.56 1035 10 16 0.00 0.00
8:52 am 08:52 Mostly Sunny 23 -5 2 -16.7 40 40 N 17 28 30.60 1036 10 16 0.00 0.00
9:52 am 09:52 Sunny 24 -4.4 1 -17.2 36 36 NNW 13 20 30.61 1037 10 16 0.00 0.00
10:52 am 10:52 Sunny 25 -3.9 1 -17.2 35 35 NW 12 19 30.62 1037 10 16 0.00 0.00
11:52 am 11:52 Sunny 27 -2.8 3 -16.1 35 35 NW 12 19 30.58 1036 10 16 0.00 0.00
12:52 pm 12:52 Partly Cloudy 28 -2.2 3 -16.1 34 34 NNW 7 11 30.58 1036 10 16 0.00 0.00
1:52 pm 13:52 Mostly Cloudy 28 -2.2 2 -16.7 32 32 WSW 6 9 30.56 1035 10 16 0.00 0.00
2:52 pm 14:52 Mostly Cloudy 28 -2.2 2 -16.7 32 32 WNW 7 11 30.55 1035 10 16 0.00 0.00
3:52 pm 15:52 Partly Cloudy 29 -1.7 2 -16.7 31 31 VRB 6 9 30.55 1034 10 16 0.00 0.00
4:52 pm 16:52 Partly Cloudy 26 -3.3 3 -16.1 37 37 N 6 9 30.55 1035 10 16 0.00 0.00
5:52 pm 17:52 Mostly Clear 27 -2.8 3 -16.1 35 35 NE 5 7 30.55 1034 10 16 0.00 0.00
6:52 pm 18:52 Clear 26 -3.3 4 -15.6 38 38 ESE 5 7 30.56 1035 10 16 0.00 0.00
7:52 pm 19:52 Clear 25 -3.9 5 -15 42 42 SE 5 7 30.56 1035 10 16 0.00 0.00
8:52 pm 20:52 Clear 24 -4.4 6 -14.4 46 46 SSE 6 9 30.54 1034 10 16 0.00 0.00
9:52 pm 21:52 Clear 24 -4.4 7 -13.9 48 48 SSE 6 9 30.52 1034 10 16 0.00 0.00
10:52 pm 22:52 Clear 24 -4.4 7 -13.9 48 48 SSE 7 11 30.50 1033 10 16 0.00 0.00
11:52 pm 23:52 Clear 25 -3.9 8 -13.3 48 48 S 9 15 30.48 1032 10 16 0.00 0.00

Powered by AerisWeather